Weather observations for the past three days for
Selfridge Air National Guard Base
Imperial (Metric)
Date Time (edt) Wind (mph) Vis. (mi.) Weather Sky Cond. Temperature (ºF) Relative Humidity Wind Chill (°F) Heat Index (°F) Pressure Precipitation (in)
Air Dwpt 6 hour altimeter (in) sea level (mb) 1 hr 3 hr 6 hr
Max. Min.
17 04:55 NW 5 10.00 Mostly Cloudy FEW140 BKN170 70.5 64 80% 29.8 1009.1
17 01:55 NW 8 10.00 Overcast OVC150 74.8 65.1 84.7 74.8 72% 29.8 1009.1
16 22:56 NW 8 10.00 Partly Cloudy FEW060 SCT210 78.6 68 70% 81 29.77 1008.1
16 21:56 W 8 10.00 Partly Cloudy FEW040 SCT060 80.2 66.9 64% 83 29.76 1007.8
16 20:56 NW 10 10.00 Mostly Cloudy FEW040 SCT050 BKN120 82.2 67.3 61% 85 29.74 1007.1
16 19:56 W 10 10.00 Mostly Cloudy FEW045 SCT120 BKN180 85.3 66.2 87.6 84 53% 88 29.73 1006.8
16 18:56 W 15 G 21 10.00 Mostly Cloudy SCT055 BKN180 86.4 66.6 52% 89 29.73 1006.8
16 17:56 W 12 10.00 Mostly Cloudy BKN060 BKN180 86 67.3 54% 89 29.73 1006.7
16 16:56 W 10 10.00 Mostly Cloudy FEW035 SCT060 BKN180 87.6 68.4 53% 91 29.74 1007.1
16 15:56 W 12 G 23 10.00 Mostly Cloudy FEW030 BKN050 BKN100 85.8 68.2 56% 89 29.74 1007.1
16 14:56 W 15 G 23 10.00 Partly Cloudy FEW045 SCT100 86 67.3 54% 89 29.74 1007.1
16 13:56 W 16 10.00 Mostly Cloudy SCT030 BKN200 85.3 67.8 85.5 68.2 56% 89 29.74 1007.1 0.03
16 12:56 W 13 10.00 A Few Clouds FEW030 83.5 67.6 59% 86 29.74 1007.1
16 11:56 W 14 G 22 10.00 A Few Clouds FEW025 81.5 68.5 65% 85 29.74 1007.1
16 10:56 W 13 10.00 A Few Clouds FEW023 79.3 68.7 70% 82 29.74 1007.1 0.03
16 09:56 W 12 10.00 Partly Cloudy SCT020 SCT250 76.3 68.5 77% 78 29.72 1006.5
16 08:56 W 12 10.00 Partly Cloudy SCT032 SCT040 SCT065 70.3 67.5 91% 29.7 1005.8 0.01
16 07:56 NW 12 10.00 Overcast BKN038 BKN065 OVC120 69.4 65.7 77.5 68 88% 29.64 1003.8 0.09 0.61
16 06:56 N 14 1.50 Heavy Rain Fog/Mist SCT008 SCT013 OVC020 72 69.8 93% 29.6 1002.4 0.14
16 06:19 SW 9 4.00 Thunderstorm in Vicinity Light Rain Fog/Mist FEW009 BKN018 74.1 71.2 91% 29.58 1001.7
16 04:55 E 6 10.00 Fair CLR 73.9 70.5 89% 29.58 1001.7 0.01 0.23
16 03:55 S 6 10.00 Light Drizzle FEW011 72.5 66.9 83% 29.62 1003.1 0.22
16 02:55 SE 6 10.00 Fair CLR 75.4 72.1 90% 75 29.64 1003.7
15 23:55 S 9 10.00 A Few Clouds FEW170 76.1 71.6 86% 77 29.7 1005.8
15 22:56 SE 6 10.00 A Few Clouds FEW250 76.1 69.4 80% 77 29.73 1006.8
15 21:56 S 6 10.00 A Few Clouds FEW050 FEW250 75.6 70.3 84% 76 29.74 1007.2
15 20:56 SE 5 10.00 A Few Clouds FEW050 FEW250 78.1 71.8 81% 80 29.72 1006.5
15 19:56 SE 5 10.00 A Few Clouds FEW050 FEW250 81.3 70.9 84.6 77 71% 85 29.74 1007.1
15 18:56 SE 7 10.00 A Few Clouds FEW045 FEW250 82.8 71.1 68% 87 29.76 1007.8
15 17:56 SE 9 10.00 A Few Clouds FEW045 FEW250 82 70 67% 86 29.75 1007.4
15 16:56 SE 10 10.00 A Few Clouds FEW040 FEW250 82.9 71.2 68% 88 29.77 1008.1
15 15:56 E 9 10.00 A Few Clouds FEW040 FEW250 80.6 70.7 72% 84 29.79 1008.8
15 14:56 Calm 10.00 Partly Cloudy SCT033 79.2 70.2 74% 82 29.82 1009.9
15 13:56 E 5 10.00 Partly Cloudy SCT025 SCT200 76.5 69.4 76.5 72.5 79% 78 29.83 1010.2 0.06
15 12:56 Vrbl 6 10.00 Partly Cloudy FEW010 SCT015 SCT150 74.7 69.1 83% 29.83 1010.2
15 11:56 N 6 10.00 Mostly Cloudy SCT015 BKN040 BKN070 BKN100 73.9 69.8 87% 29.81 1009.5
15 10:56 Vrbl 3 10.00 Mostly Cloudy FEW020 SCT035 SCT045 BKN055 BKN120 73.8 68.5 84% 29.78 1008.5 0.01 0.06
15 10:05 S 14 5.00 Light Rain BKN042 BKN050 BKN080 OVC110 77 68 74% 79 29.79 1008.8
15 09:56 S 12 10.00 Overcast FEW044 SCT050 BKN080 OVC120 75.9 71.8 87% 76 29.79 1008.8
15 08:56 E 6 6.00 Light Rain SCT030 SCT040 BKN050 OVC080 75.2 73 93% 74 29.8 1009.1 0.03
15 07:56 SW 6 5.00 Light Rain FEW015 SCT025 BKN065 OVC110 75.6 72.7 75.6 71.2 91% 75 29.82 1009.8 0.15
15 07:15 W 5 10.00 Overcast BKN015 OVC130 75.4 72.9 92% 75 29.8 1009.1
15 06:56 S 5 10.00 Overcast SCT021 OVC130 74.7 72.5 93% 29.81 1009.5
15 05:55 S 6 10.00 Fair CLR 74.1 72 93% 29.79 1008.8 0.01
15 04:55 S 5 8.00 Thunderstorm Light Rain CLR 74.3 70.9 89% 29.81 1009.5 0.04 0.04
15 02:55 S 5 10.00 Fair CLR 73.4 67.8 83% 29.82 1009.8
14 23:55 SW 7 10.00 Fair CLR 77.7 68 72% 80 29.85 1010.8
14 22:56 SW 7 10.00 Partly Cloudy SCT220 79.9 70.3 73% 83 29.84 1010.5
14 21:56 SW 5 10.00 Mostly Cloudy FEW160 BKN220 81.3 69.6 68% 85 29.85 1010.8
14 20:56 SW 8 10.00 Mostly Cloudy FEW036 FEW160 BKN220 83.1 72.3 70% 89 29.84 1010.5
14 19:56 S 6 10.00 Mostly Cloudy FEW037 SCT160 BKN220 84.2 72.5 87.6 83.7 68% 90 29.85 1010.8
14 18:56 SW 9 10.00 Mostly Cloudy FEW037 SCT160 BKN220 84.9 71.8 65% 91 29.85 1010.8
14 17:56 SW 10 10.00 Mostly Cloudy FEW038 BKN160 BKN200 85.5 70.3 61% 90 29.86 1011.2
14 16:56 S 10 10.00 Overcast FEW042 BKN160 OVC220 84.9 72.1 66% 91 29.86 1011.2
14 15:56 S 9 10.00 Mostly Cloudy SCT042 BKN150 BKN220 85.3 73.4 68% 92 29.88 1011.9
14 14:56 S 10 10.00 Mostly Cloudy SCT039 BKN220 86.2 70.2 59% 91 29.88 1011.9
14 13:56 SW 10 10.00 Mostly Cloudy SCT038 BKN210 86 69.4 86 77.2 58% 90 29.89 1012.2
14 12:56 SW 12 10.00 Mostly Cloudy FEW040 SCT120 BKN200 82.9 68 61% 86 29.93 1013.6
14 11:56 S 12 10.00 Mostly Cloudy SCT055 BKN150 80.6 67.3 64% 83 29.96 1014.6
14 10:56 SW 10 10.00 Mostly Cloudy SCT075 BKN150 79.5 66.2 64% 82 29.96 1014.6
14 09:56 SW 10 10.00 Overcast BKN085 OVC150 78.3 66.4 67% 80 29.98 1015.3
14 08:56 SW 9 10.00 Mostly Cloudy FEW050 BKN120 BKN210 77.7 68.4 73% 80 29.98 1015.3
14 07:56 SW 9 10.00 Mostly Cloudy FEW050 SCT100 BKN210 77.4 68.7 77.4 70.7 75% 79 29.98 1015.3
14 06:56 S 9 10.00 Mostly Cloudy FEW060 SCT100 BKN180 74.7 69.4 84% 29.98 1015.3
Date Time (edt) Wind (mph) Vis. (mi.) Weather Sky Cond. Air Dwpt Max. Min. Relative Humidity Wind Chill (°F) Heat Index (°F) altimeter (in) sea level (mb) 1 hr 3 hr 6 hr
6 hour
Temperature (ºF) Pressure Precipitation (in)